Regional Weather Roundup
Issued by NWS

Home | Current Version | Previous Version | Text Only | Print | Product List | Glossary On
Versions: 1 2 3 4 5 6 7 8 9 10 11 12 13 14 15 16 17 18 19 20 21 22 23 24 25 26 27 28 29 30 31 32 33 34 35 36 37 38 39 40 41 42 43 44 45 46 47 48 49 50
000
ASUS45 KTFX 281719
RWRMT
MONTANA HOURLY WEATHER ROUNDUP
NATIONAL WEATHER SERVICE GREAT FALLS MT
1019 AM MST WED JAN 28 2015

NOTE: "FAIR" INDICATES FEW OR NO CLOUDS BELOW 12000 FEET WITH NO
SIGNIFICANT WEATHER AND/OR OBSTRUCTIONS TO VISIBILITY.

* THESE STATIONS ARE NOT UNDER NWS QUALITY CONTROL. THEY DO NOT
   REPORT WEATHER SUCH AS PRECIPITATION OR FOG.

MTZ001>007-043-281800-
WEST OF THE DIVIDE
CITY           SKY/WX    TMP DP  RH WIND       PRES   REMARKS
KALISPELL      SUNNY     18  18 100 CALM      30.27R
MISSOULA       FOG       32  30  92 CALM      30.30R
BUTTE          PTSUNNY   36  27  70 NW6       30.23R WCI  31
MULLAN PASS    FOG       28  27  96 VRB7      30.25R VSB 1/2  WCI  21
* ANACONDA     PTCLDY    36  27  70 N/A        N/A
* ESSEX        N/A       28  25  89 N/A        N/A
* EUREKA APT   SUNNY     32  27  82 CALM      30.29R
* HAMILTON APT PTCLDY    45  30  56 NE3       30.28R
* LIBBY APT    SUNNY     28  27  96 CALM      30.33R VSB 1/2
* LINCOLN      N/A       37  27  67 S3         N/A
* LOOKOUT PASS N/A       35  30  82 SE2G8      N/A
* POLSON       N/A       36  30  79 SE2        N/A
* RONAN APT    PTCLDY    32  32 100 N/A        N/A
* SEELEY LAKE  N/A       21  19  92 N/A        N/A
* THOMP F APT  PTCLDY    32  31  96 N/A        N/A
* YAAK HILL    N/A       32  30  92 N/A        N/A
$$

MTZ008-052>055-281800-
SOUTHWEST MONTANA
CITY           SKY/WX    TMP DP  RH WIND       PRES   REMARKS
BOZEMAN        PTCLDY    41  34  76 CALM      30.22R
DILLON         PTSUNNY   43  28  56 CALM      30.21R
* W YELLOWSTON CLOUDY    33  31  92 SW3        N/A
* THREE FORKS  PTCLDY    43  43 100 N/A        N/A
* BOULDER HILL N/A       38  21  50 NE2        N/A
* MONIDA PASS  N/A       30  30 100 W3         N/A
* RAYNOLDS PAS N/A       32  14  47 SE13       N/A   WCI  22
* WHITEHALL    N/A       43  31  63 W6         N/A
* WISE RIVER   N/A       34  26  73 NW2G12     N/A
$$

MTZ009>010-012-014-046-048-049-054-281800-
EAST SLOPES AND CENTRAL MONTANA
CITY           SKY/WX    TMP DP  RH WIND       PRES   REMARKS
CUT BANK       FOG       30  27  89 N10       30.21R WCI  21
GREAT FALLS    SUNNY     41  28  60 W5        30.17R
HELENA         PTCLDY    46  27  48 W12       30.20R
MALMSTROM AFB  SUNNY     41  28  60 W5        30.18R
* CONRAD       SUNNY     32  28  85 CALM       N/A
* DEARBORN     N/A       42  27  55 S1         N/A
* EAST GLACIER N/A       38  22  53 W12G18     N/A   WCI  30
* MONARCH      N/A       36  22  57 W7         N/A   WCI  30
* PENDROY      N/A       36  31  82 VRB10      N/A   WCI  29
* ROGERS PASS  N/A       34  25  70 E4G18      N/A
* SWEET GRASS  N/A       32  32 100 NW10       N/A   WCI  24
* WHITE SULPH  N/A       43  26  51 NW11       N/A
$$

MTZ011-013-016-021-035-040-045-047-050-051-281800-
NORTH CENTRAL MONTANA
CITY           SKY/WX    TMP DP  RH WIND       PRES   REMARKS
HAVRE          PTSUNNY   34  30  85 W8        30.20R WCI  27
LEWISTOWN      SUNNY     37  27  67 NW13      30.14R WCI  29
* N BAR RANCH  SUNNY     43  25  49 NW17G30   30.09R
* CHINOOK      PTCLDY    34  30  85 W9        30.19R WCI  27
* MALTA APT    PTCLDY    36  28  73 W8         N/A   WCI  30
* CHESTER      N/A       34  30  85 NW4        N/A
* DENTON       N/A       39  27  62 NW12G20    N/A   WCI  32
* GEYSER       N/A       42  27  55 W15        N/A
* JUDITH GAP   N/A       38  24  57 NW11G21    N/A   WCI  31
* LOMA         N/A       38  31  76 N2G7       N/A
$$

MTZ017>020-022>027-061-062-281800-
NORTHEAST MONTANA
CITY           SKY/WX    TMP DP  RH WIND       PRES   REMARKS
GLASGOW        FOG       34  30  85 NW23      30.04R WCI  22
GLENDIVE       CLOUDY    39  30  70 NW28G38   29.96R WCI  27
JORDAN         PTSUNNY   37  30  76 NW18      30.03R WCI  27
SIDNEY         CLOUDY    34  30  85 NW23G28   29.97R WCI  22
WOLF POINT     CLOUDY    36  30  79 NW12      30.03R WCI  28
* BEAVER HILL  N/A       40  31  70 W17G22     N/A   WCI  31
* CIRCLE       N/A       33  30  89 NW12G21    N/A   WCI  24
* LINDSAY DVD  N/A       35  30  82 W30G37     N/A   WCI  22
* NAVAJO       N/A       29  28  96 N16G27     N/A   WCI  17
* PLENTYWOOD A PTCLDY    28  28 100 NW17G24   29.96R VSB 3    WCI  16
* POPLAR APT   PTSUNNY   34  30  85 N/A       30.00R VSB 3
* SACO         N/A       34  31  89 NW11G18    N/A   WCI  26
* SCOBEY APT   PTCLDY    30  27  89 NW25G30    N/A   WCI  16
$$

MTZ028>042-056>058-281800-
SOUTHCENTRAL AND SOUTHEAST MONTANA
CITY           SKY/WX    TMP DP  RH WIND       PRES   REMARKS
BAKER          PTSUNNY   39  30  70 W18       29.90R WCI  30
BILLINGS       PTSUNNY   50  25  38 NW20      30.10R
LIVINGSTON     CLOUDY    45  28  51 W5        30.18R
MILES CITY     CLOUDY    45  28  51 NW16      29.98R
* BIG TIMBER A PTSUNNY   46  23  40 SW22G30   30.13R
* FORSYTH APT  CLOUDY    46  28  50 W14G20    30.03R
* LAUREL APT   PTSUNNY   52  28  40 NW8        N/A
* ROUNDUP APT  CLOUDY    48  21  34 W18        N/A
* ALZADA       N/A       47  30  52 W8G13      N/A
* HYSHAM       N/A       48  25  41 W9G16      N/A
* REED POINT   N/A       52  29  41 W18G27     N/A
* ROSCOE HILL  N/A       47  26  44 NW6G13     N/A
$$

REGIONAL REPORTS...DAKOTAS
CITY           SKY/WX    TMP DP  RH WIND       PRES   REMARKS
WILLISTON      FOG       30  28  92 N14G22    29.92R VSB 1 3/4 WCI  19
DICKINSON      CLOUDY    45  30  56 W21       29.80R
BEACH          SUNNY     39  32  76 NW17G23   29.90R WCI  30
CROSBY         FOG       30  30 100 N14       29.92R VSB 1 1/4 WCI  19
TIOGA          FOG       28  28 100 N13       29.89R VSB 1/2  WCI  17
WATFORD CITY   PTSUNNY   34  32  92 NW23G28   29.85R WCI  22
BISMARCK       CLOUDY    34  32  92 W3        29.78R
GRAND FORKS    FOG       34  32  92 S12       29.78S VSB 3    WCI  25
FARGO          FOG       36  30  79 S15       29.78S WCI  27
BUFFALO SD     CLOUDY    50  28  43 NW28G37   29.80S
RAPID CITY     CLOUDY    55  27  34 NW29G39   29.86R
$$

REGIONAL REPORTS...WYOMING/IDAHO/WASHINGTON
CITY           SKY/WX    TMP DP  RH WIND       PRES   REMARKS
GILLETTE       CLOUDY    48  32  54 NW15      30.01R
SHERIDAN       CLOUDY    46  36  68 NW10      30.07R
CODY           PTSUNNY   43  39  86 CALM      30.14R
YELLOWSTONE LA PTSUNNY   30  28  92 CALM      30.23R
SALMON         CLOUDY   N/A N/A N/A CALM      30.32R VSB 3
MULLAN PASS    FOG       28  27  96 VRB7      30.25S VSB 1/2  WCI  21
SAND POINT     CLOUDY    34  34 100 CALM      30.35R
SPOKANE        FOG       34  34 100 NE5       30.33R VSB M1/4 WCI  29
$$

REGIONAL REPORTS...ALBERTA
CITY           SKY/WX    TMP DP  RH WIND       PRES   REMARKS
CALGARY        PTCLDY    36  30  79 CALM      30.20R
LETHBRIDGE     FOG       34  32  92 W5        30.22R WCI  29
MEDICINE HAT   FOG       32  32 100 W7        30.23R VSB 2 1/2 WCI  25
EDMONTON       PTCLDY    27  25  92 N6        30.19R WCI  20
WATERTON GATE  N/A       34  28  79 NE2        N/A
CARDSTON       N/A       34  32  92 S5         N/A   WCI  29
MILK RIVER     N/A       34  34 100 W8         N/A   WCI  27
$$

REGIONAL REPORTS...SASKATCHEWAN
CITY           SKY/WX    TMP DP  RH WIND       PRES   REMARKS
SWIFT CURRENT  HVY SNOW  28  28 100 W14G20    30.08R VSB M1/4 WCI  17
MOOSE JAW      FOG       28  27  96 NW14G21   30.04R WCI  17
REGINA         LGT SNOW  25  25 100 NW13      30.01R VSB 1 1/2 WCI  13
VAL MARIE      N/A       30  28  92 N21G29     N/A   WCI  17
ASSINIBOIA     N/A       28  27  96 NW17G23    N/A   WCI  16
CORONACH       N/A       30  28  92 NW24G32    N/A   WCI  16

$$



USA.gov is the U.S. government's official web portal to all federal, state and local government web resources and services.